This is the latest recevied weather packets stored in our database for station/object K0FJ-1. If no packets are shown the sender has not sent any weather packets the latest 10 day(s).
| Time | Temp. | Humidity | Pressure | Rain* | Wind** | Luminosity | Snow |
|---|---|---|---|---|---|---|---|
| 1778219704 | 14.44° C | 63% | 1011.8 hPa | 0 mm | - | - | - |
| 1778219403 | 14.44° C | 62% | 1011.8 hPa | 0 mm | - | - | - |
| 1778219104 | 14.44° C | 62% | 1012 hPa | 0 mm | - | - | - |
| 1778218803 | 14.44° C | 62% | 1012.1 hPa | 0 mm | - | - | - |
| 1778218503 | 14.44° C | 61% | 1012 hPa | 0 mm | - | - | - |
| 1778218203 | 14.44° C | 59% | 1012 hPa | 0 mm | - | - | - |
| 1778217903 | 15° C | 60% | 1011.9 hPa | 0 mm | - | - | - |
| 1778217603 | 15° C | 59% | 1011.8 hPa | 0 mm | - | - | - |
| 1778217303 | 15° C | 56% | 1011.8 hPa | 0 mm | - | - | - |
| 1778217003 | 15° C | 55% | 1011.8 hPa | 0 mm | - | - | - |
| 1778216703 | 15° C | 56% | 1011.9 hPa | 0 mm | - | - | - |
| 1778216404 | 15° C | 54% | 1012 hPa | 0 mm | - | - | - |
| 1778216103 | 15° C | 56% | 1012.1 hPa | 0 mm | - | - | - |
| 1778215804 | 15° C | 56% | 1012.2 hPa | 0 mm | - | - | - |
| 1778215503 | 14.44° C | 57% | 1012.2 hPa | 0 mm | - | - | - |
| 1778215204 | 13.89° C | 59% | 1012.2 hPa | 0 mm | - | - | - |
| 1778214903 | 13.89° C | 62% | 1012.2 hPa | 0 mm | - | - | - |
| 1778214603 | 13.89° C | 63% | 1012.1 hPa | 0 mm | - | - | - |
| 1778214304 | 13.89° C | 64% | 1012 hPa | 0 mm | - | - | - |
| 1778214003 | 13.89° C | 63% | 1011.9 hPa | 0 mm | - | - | - |
| 1778213703 | 13.89° C | 63% | 1011.8 hPa | 0 mm | - | - | - |
| 1778213403 | 13.89° C | 63% | 1011.7 hPa | 0 mm | - | - | - |
| 1778213103 | 14.44° C | 62% | 1011.7 hPa | 0 mm | - | - | - |
| 1778212803 | 14.44° C | 61% | 1011.7 hPa | 0 mm | - | - | - |
| 1778212503 | 14.44° C | 59% | 1011.8 hPa | 0 mm | - | - | - |
* Rain latest hour (hover to see other rain measurements)
** Current wind speed in m/s (hover to see current wind gust speed)